Regional Weather Roundup
Issued by NWS

Home | Current Version | Previous Version | Graphics & Text | Print | Product List | Glossary Off
Versions: 1 2 3 4 5 6 7 8 9 10 11 12 13 14 15 16 17 18 19 20 21 22 23 24 25 26 27 28 29 30 31 32 33 34 35 36 37 38 39 40 41 42 43 44 45 46 47 48 49 50

631
ASUS43 KIND 180009
RWRIN

WEATHER ROUNDUP FOR INDIANA
NATIONAL WEATHER SERVICE INDIANAPOLIS IN
700 PM EST WED JAN 17 2018

NOTE: "FAIR" INDICATES FEW OR NO CLOUDS BELOW 12,000 FEET WITH NO
SIGNIFICANT WEATHER AND/OR OBSTRUCTIONS TO VISIBILITY.

* - STATION DOES NOT REPORT WEATHER SUCH AS PRECIPITATION OR FOG.

+ - STATION NOT QUALITY CONTROLLED BY THE NATIONAL WEATHER SERVICE.
    USE DATA WITH CAUTION...ESPECIALLY DEWPOINT AND RELATIVE
    HUMIDITY OBSERVATIONS.

INZ001>003-010>013-019-020-180100-
NORTHWEST INDIANA

CITY           SKY/WX    TMP DP  RH WIND       PRES   REMARKS
GARY /AIRPORT/ MOCLDY    18   9  68 SW14      30.40F WCI   4
KNOX *+        FAIR      14  10  85 SW10      30.41F WCI   1
LA PORTE +     FAIR      14   9  80 SW15      30.38F WCI  -2
6HR MIN TEMP:  13; 6HR MAX TEMP:  18;

MICHIGAN CITY+ FAIR      18   9  68 SW14      30.38F WCI   4
MONTICELLO +   FAIR      11   5  77 SW9       30.45S WCI  -1
6HR MIN TEMP:   9; 6HR MAX TEMP:  14;

RENSSELAER +   FAIR      16  10  79 SW15      30.44F WCI   1
VALPARAISO     FAIR      16  10  77 SW12      30.39F WCI   3
6HR MIN TEMP:  15; 6HR MAX TEMP:  19;


$$

LMZ046-743>745-180100-
SOUTHERN LAKE MICHIGAN

STATION/POSITION TIME  TEMP    WIND        PRES    WAVE
                       AIR SEA DIR/SP/G            HT
                 (UTC) (F)     (DEG/KT/KT) (MB)    (FT)
BURNS HARBOR     2340   17     210/ 16/ 21 1029.1F
MICHIGAN CITY    2340   16     190/ 18/ 21   N/A

$$

INZ004-005-014>016-021>024-180100-
NORTH CENTRAL INDIANA

CITY           SKY/WX    TMP DP  RH WIND       PRES   REMARKS
ELKHART        FAIR      18   9  68 SW12      30.37F WCI   5
GOSHEN         FAIR      13   7  77 SW15      30.38F WCI  -3
6HR MIN TEMP:  13; 6HR MAX TEMP:  19;

LOGANSPORT +   FAIR      12   9  85 SW13      30.46S WCI  -3
PERU/GRISSOM   CLEAR     10   9  92 SW12      30.43F WCI  -4
ROCHESTER +    FAIR      14  10  85 SW7       30.43F WCI   4
SOUTH BEND     FAIR      15   9  76 SW15      30.36F WCI   0
6HR MIN TEMP:  15; 6HR MAX TEMP:  18;

WARSAW +       FAIR      12   9  85 SW7       30.40F WCI   2

$$

INZ006>009-017-018-025>027-180100-
NORTHEAST INDIANA

CITY           SKY/WX    TMP DP  RH WIND       PRES   REMARKS
AUBURN +       FAIR      16  10  79 SW8       30.39S WCI   5
FORT WAYNE     FAIR      15   9  76 SW13      30.42F WCI   1
6HR MIN TEMP:  14; 6HR MAX TEMP:  19;

HUNTINGTON +   FAIR      13   8  79 SW8       30.42F WCI   2
6HR MIN TEMP:  13; 6HR MAX TEMP:  18;

KENDALLVILLE + FAIR      15   9  77 SW13      30.36F WCI   0

$$

INZ028-029-035-036-043>045-051>053-180100-
WEST CENTRAL INDIANA

CITY           SKY/WX    TMP DP  RH WIND       PRES   REMARKS
CRAWFORDSVL +  FAIR      10   6  87 MISG        N/A
6HR MIN TEMP:  10; 6HR MAX TEMP:  14;

GREENCASTLE +  FAIR      12   5  73 CALM      30.50F
LAFAYETTE      FAIR      11   7  84 SW7       30.48F WCI   0
6HR MIN TEMP:  11; 6HR MAX TEMP:  16;

TERRE HAUTE    FAIR      11   3  70 S8        30.53F WCI  -1
6HR MIN TEMP:  11; 6HR MAX TEMP:  17;


$$

INZ030>032-037>040-046>048-054>057-064-065-180100-
CENTRAL INDIANA

CITY           SKY/WX    TMP DP  RH WIND       PRES   REMARKS
COLUMBUS       CLEAR     10   7  85 SW5       30.52F WCI   2
FRANKFORT +    FAIR      12   8  82 SW7       30.48S WCI   1
6HR MIN TEMP:  12; 6HR MAX TEMP:  17;

INDIANAPOLIS   FAIR      13   6  74 SW10      30.49F WCI   0
6HR MIN TEMP:  11; 6HR MAX TEMP:  18;

-EAGLE CREEK   FAIR      14   6  70 SW7       30.48F WCI   4
6HR MIN TEMP:  14; 6HR MAX TEMP:  19;

MARION +       FAIR      11   8  85 CALM      30.45F
MT COMFORT *+  FAIR      14  10  85 SW8       30.48S WCI   3
SHELBYVILLE    FAIR      13   5  70 S7        30.49F WCI   3
6HR MIN TEMP:  10; 6HR MAX TEMP:  18;

ZIONSVILLE +   FAIR      13   7  79 SW7       30.47F WCI   2
6HR MIN TEMP:  12; 6HR MAX TEMP:  16;


$$

INZ033-034-041-042-049-050-058-059-180100-
EAST CENTRAL INDIANA

CITY           SKY/WX    TMP DP  RH WIND       PRES   REMARKS
MUNCIE         FAIR      17   8  67 SW3       30.45S
6HR MIN TEMP:  15; 6HR MAX TEMP:  19;

RICHMOND +     FAIR       9   5  85 SW8       30.45S WCI  -4

$$

INZ060-061-067>069-081>083-085>088-180100-
SOUTHWEST INDIANA

CITY           SKY/WX    TMP DP  RH WIND       PRES   REMARKS
EVANSVILLE     FAIR      14   6  70 CALM      30.61S
6HR MIN TEMP:  13; 6HR MAX TEMP:  18;

HUNTINGBURG +  FAIR       8   4  83 W5        30.59F WCI   0
6HR MIN TEMP:   8; 6HR MAX TEMP:  30;

WASHINGTON +   FAIR      10   3  72 CALM      30.59S
6HR MIN TEMP:   8; 6HR MAX TEMP:  13;


$$

INZ062-063-066-070>080-084-089>092-180100-
SOUTH CENTRAL AND SOUTHEAST INDIANA

CITY           SKY/WX    TMP DP  RH WIND       PRES   REMARKS
BATESVILLE *+    N/A    N/A N/A N/A MISG        N/A
BLOOMINGTON    FAIR      10   3  73 SW7       30.52F WCI  -1
6HR MIN TEMP:  10; 6HR MAX TEMP:  18;

FRENCH LICK *+ FAIR      14   3  62 CALM      30.55S
MADISON *+     FAIR      14  10  85 SW3       30.53F
NORTH VERNON + FAIR      12   5  73 S6        30.52F WCI   3
SEYMOUR +      FAIR      16   7  67 SW9       30.54F WCI   4

$$





USA.gov is the U.S. government's official web portal to all federal, state and local government web resources and services.